owner,sensor,date,latitude,longitude,relative_humidity,qcFlag 
DISL,ioos:station:DISL:CATA:1,2017-05-01T00:00:00Z,30.3085,-88.1395,93.9,1111122 
DISL,ioos:station:DISL:CATA:1,2017-05-01T00:30:00Z,30.3085,-88.1395,93.7,1111122 
DISL,ioos:station:DISL:CATA:1,2017-05-01T01:00:00Z,30.3085,-88.1395,93.3,1111122 
DISL,ioos:station:DISL:CATA:1,2017-05-01T01:30:00Z,30.3085,-88.1395,95.8,1111122 
DISL,ioos:station:DISL:CATA:1,2017-05-01T02:00:00Z,30.3085,-88.1395,94.5,1111122 
DISL,ioos:station:DISL:CATA:1,2017-05-01T02:30:00Z,30.3085,-88.1395,96.2,1111122 
DISL,ioos:station:DISL:CATA:1,2017-05-01T03:00:00Z,30.3085,-88.1395,95.3,1111122 
DISL,ioos:station:DISL:CATA:1,2017-05-01T03:30:00Z,30.3085,-88.1395,92.4,1111122 
DISL,ioos:station:DISL:CATA:1,2017-05-01T04:00:00Z,30.3085,-88.1395,93.9,1111122 
DISL,ioos:station:DISL:CATA:1,2017-05-01T04:30:00Z,30.3085,-88.1395,91.8,1111122 
DISL,ioos:station:DISL:CATA:1,2017-05-01T05:00:00Z,30.3085,-88.1395,89.8,1111122 
DISL,ioos:station:DISL:CATA:1,2017-05-01T05:30:00Z,30.3085,-88.1395,90.3,1111122 
DISL,ioos:station:DISL:CATA:1,2017-05-01T06:30:00Z,30.3085,-88.1395,91.4,1111122 
DISL,ioos:station:DISL:CATA:1,2017-05-01T07:00:00Z,30.3085,-88.1395,92.1,1111122 
DISL,ioos:station:DISL:CATA:1,2017-05-01T07:30:00Z,30.3085,-88.1395,89.8,1111122 
DISL,ioos:station:DISL:CATA:1,2017-05-01T08:00:00Z,30.3085,-88.1395,90.0,1111122 
DISL,ioos:station:DISL:CATA:1,2017-05-01T08:30:00Z,30.3085,-88.1395,90.4,1111122 
DISL,ioos:station:DISL:CATA:1,2017-05-01T09:00:00Z,30.3085,-88.1395,80.3,1111122 
DISL,ioos:station:DISL:CATA:1,2017-05-01T09:30:00Z,30.3085,-88.1395,77.52,1111122 
DISL,ioos:station:DISL:CATA:1,2017-05-01T10:00:00Z,30.3085,-88.1395,80.1,1111122 
DISL,ioos:station:DISL:CATA:1,2017-05-01T10:30:00Z,30.3085,-88.1395,72.26,1111122 
DISL,ioos:station:DISL:CATA:1,2017-05-01T11:00:00Z,30.3085,-88.1395,68.39,1111122 
DISL,ioos:station:DISL:CATA:1,2017-05-01T11:30:00Z,30.3085,-88.1395,69.21,1111122 
DISL,ioos:station:DISL:CATA:1,2017-05-01T12:00:00Z,30.3085,-88.1395,74.36,1111122 
DISL,ioos:station:DISL:CATA:1,2017-05-01T12:30:00Z,30.3085,-88.1395,69.8,1111122 
DISL,ioos:station:DISL:CATA:1,2017-05-01T13:00:00Z,30.3085,-88.1395,66.64,1111122 
DISL,ioos:station:DISL:CATA:1,2017-05-01T13:30:00Z,30.3085,-88.1395,64.38,1111122 
DISL,ioos:station:DISL:CATA:1,2017-05-01T14:00:00Z,30.3085,-88.1395,54.27,1111122 
DISL,ioos:station:DISL:CATA:1,2017-05-01T14:30:00Z,30.3085,-88.1395,53.13,1111122 
DISL,ioos:station:DISL:CATA:1,2017-05-01T15:00:00Z,30.3085,-88.1395,50.28,1111122 
DISL,ioos:station:DISL:CATA:1,2017-05-01T15:30:00Z,30.3085,-88.1395,45.44,1111122 
DISL,ioos:station:DISL:CATA:1,2017-05-01T16:00:00Z,30.3085,-88.1395,44.21,1111122 
DISL,ioos:station:DISL:CATA:1,2017-05-01T16:30:00Z,30.3085,-88.1395,40.82,1111122 
DISL,ioos:station:DISL:CATA:1,2017-05-01T17:00:00Z,30.3085,-88.1395,33.55,1111122 
DISL,ioos:station:DISL:CATA:1,2017-05-01T17:30:00Z,30.3085,-88.1395,32.17,1111122 
DISL,ioos:station:DISL:CATA:1,2017-05-01T18:00:00Z,30.3085,-88.1395,50.26,1111122 
DISL,ioos:station:DISL:CATA:1,2017-05-01T18:30:00Z,30.3085,-88.1395,46.91,1111122 
DISL,ioos:station:DISL:CATA:1,2017-05-01T19:00:00Z,30.3085,-88.1395,49.3,1111122 
DISL,ioos:station:DISL:CATA:1,2017-05-01T19:30:00Z,30.3085,-88.1395,49.75,1111122 
DISL,ioos:station:DISL:CATA:1,2017-05-01T20:00:00Z,30.3085,-88.1395,41.39,1111122 
DISL,ioos:station:DISL:CATA:1,2017-05-01T20:30:00Z,30.3085,-88.1395,46.94,1111122 
DISL,ioos:station:DISL:CATA:1,2017-05-01T21:00:00Z,30.3085,-88.1395,47.08,1111122 
DISL,ioos:station:DISL:CATA:1,2017-05-01T21:30:00Z,30.3085,-88.1395,45.74,1111122 
DISL,ioos:station:DISL:CATA:1,2017-05-01T22:00:00Z,30.3085,-88.1395,42.59,1111122 
DISL,ioos:station:DISL:CATA:1,2017-05-01T22:30:00Z,30.3085,-88.1395,48.38,1111122 
DISL,ioos:station:DISL:CATA:1,2017-05-01T23:00:00Z,30.3085,-88.1395,53.63,1111122 
DISL,ioos:station:DISL:CATA:1,2017-05-01T23:30:00Z,30.3085,-88.1395,51.02,1111122 
DISL,ioos:station:DISL:CATA:1,2017-05-02T00:00:00Z,30.3085,-88.1395,48.42,1111122 
DISL,ioos:station:DISL:CATA:1,2017-05-02T00:30:00Z,30.3085,-88.1395,53.67,1111122 
DISL,ioos:station:DISL:CATA:1,2017-05-02T01:00:00Z,30.3085,-88.1395,55.0,1111122 
DISL,ioos:station:DISL:CATA:1,2017-05-02T01:30:00Z,30.3085,-88.1395,53.26,1111122 
DISL,ioos:station:DISL:CATA:1,2017-05-02T02:00:00Z,30.3085,-88.1395,55.65,1111122 
DISL,ioos:station:DISL:CATA:1,2017-05-02T02:30:00Z,30.3085,-88.1395,58.19,1111122 
DISL,ioos:station:DISL:CATA:1,2017-05-02T03:00:00Z,30.3085,-88.1395,59.63,1111122 
DISL,ioos:station:DISL:CATA:1,2017-05-02T03:30:00Z,30.3085,-88.1395,63.71,1111122 
DISL,ioos:station:DISL:CATA:1,2017-05-02T04:00:00Z,30.3085,-88.1395,65.66,1111122 
DISL,ioos:station:DISL:CATA:1,2017-05-02T04:30:00Z,30.3085,-88.1395,62.95,1111122 
DISL,ioos:station:DISL:CATA:1,2017-05-02T05:00:00Z,30.3085,-88.1395,71.49,1111122 
DISL,ioos:station:DISL:CATA:1,2017-05-02T05:30:00Z,30.3085,-88.1395,77.69,1111122 
DISL,ioos:station:DISL:CATA:1,2017-05-02T06:30:00Z,30.3085,-88.1395,86.6,1111122 
DISL,ioos:station:DISL:CATA:1,2017-05-02T07:00:00Z,30.3085,-88.1395,85.7,1111122 
DISL,ioos:station:DISL:CATA:1,2017-05-02T07:30:00Z,30.3085,-88.1395,83.4,1111122 
DISL,ioos:station:DISL:CATA:1,2017-05-02T08:00:00Z,30.3085,-88.1395,72.57,1111122 
DISL,ioos:station:DISL:CATA:1,2017-05-02T08:30:00Z,30.3085,-88.1395,66.81,1111122 
DISL,ioos:station:DISL:CATA:1,2017-05-02T09:00:00Z,30.3085,-88.1395,68.46,1111122 
DISL,ioos:station:DISL:CATA:1,2017-05-02T09:30:00Z,30.3085,-88.1395,46.9,1111122 
DISL,ioos:station:DISL:CATA:1,2017-05-02T10:00:00Z,30.3085,-88.1395,62.94,1111122 
DISL,ioos:station:DISL:CATA:1,2017-05-02T10:30:00Z,30.3085,-88.1395,66.61,1111122 
DISL,ioos:station:DISL:CATA:1,2017-05-02T11:00:00Z,30.3085,-88.1395,70.07,1111122 
DISL,ioos:station:DISL:CATA:1,2017-05-02T11:30:00Z,30.3085,-88.1395,74.29,1111122 
DISL,ioos:station:DISL:CATA:1,2017-05-02T12:00:00Z,30.3085,-88.1395,79.18,1111122 
DISL,ioos:station:DISL:CATA:1,2017-05-02T12:30:00Z,30.3085,-88.1395,77.59,1111122 
DISL,ioos:station:DISL:CATA:1,2017-05-02T13:00:00Z,30.3085,-88.1395,59.22,1111122 
DISL,ioos:station:DISL:CATA:1,2017-05-02T13:30:00Z,30.3085,-88.1395,51.81,1111122 
DISL,ioos:station:DISL:CATA:1,2017-05-02T14:00:00Z,30.3085,-88.1395,53.11,1111122 
DISL,ioos:station:DISL:CATA:1,2017-05-02T14:30:00Z,30.3085,-88.1395,48.92,1111122 
DISL,ioos:station:DISL:CATA:1,2017-05-02T15:00:00Z,30.3085,-88.1395,47.41,1111122 
DISL,ioos:station:DISL:CATA:1,2017-05-02T15:30:00Z,30.3085,-88.1395,50.57,1111122 
DISL,ioos:station:DISL:CATA:1,2017-05-02T16:00:00Z,30.3085,-88.1395,37.44,1111122 
DISL,ioos:station:DISL:CATA:1,2017-05-02T16:30:00Z,30.3085,-88.1395,40.6,1111122 
DISL,ioos:station:DISL:CATA:1,2017-05-02T17:00:00Z,30.3085,-88.1395,44.77,1111122 
DISL,ioos:station:DISL:CATA:1,2017-05-02T17:30:00Z,30.3085,-88.1395,40.18,1111122 
DISL,ioos:station:DISL:CATA:1,2017-05-02T18:00:00Z,30.3085,-88.1395,40.8,1111122 
DISL,ioos:station:DISL:CATA:1,2017-05-02T18:30:00Z,30.3085,-88.1395,42.1,1111122 
DISL,ioos:station:DISL:CATA:1,2017-05-02T19:00:00Z,30.3085,-88.1395,42.45,1111122 
DISL,ioos:station:DISL:CATA:1,2017-05-02T19:30:00Z,30.3085,-88.1395,44.4,1111122 
DISL,ioos:station:DISL:CATA:1,2017-05-02T20:00:00Z,30.3085,-88.1395,43.92,1111122 
DISL,ioos:station:DISL:CATA:1,2017-05-02T20:30:00Z,30.3085,-88.1395,47.79,1111122 
DISL,ioos:station:DISL:CATA:1,2017-05-02T21:00:00Z,30.3085,-88.1395,53.41,1111122 
DISL,ioos:station:DISL:CATA:1,2017-05-02T21:30:00Z,30.3085,-88.1395,51.28,1111122 
DISL,ioos:station:DISL:CATA:1,2017-05-02T22:00:00Z,30.3085,-88.1395,50.33,1111122 
DISL,ioos:station:DISL:CATA:1,2017-05-02T22:30:00Z,30.3085,-88.1395,51.15,1111122 
DISL,ioos:station:DISL:CATA:1,2017-05-02T23:00:00Z,30.3085,-88.1395,48.75,1111122 
DISL,ioos:station:DISL:CATA:1,2017-05-02T23:30:00Z,30.3085,-88.1395,51.49,1111122 
DISL,ioos:station:DISL:CATA:1,2017-05-03T00:00:00Z,30.3085,-88.1395,51.63,1111122 
DISL,ioos:station:DISL:CATA:1,2017-05-03T00:30:00Z,30.3085,-88.1395,52.97,1111122 
DISL,ioos:station:DISL:CATA:1,2017-05-03T01:00:00Z,30.3085,-88.1395,48.7,1111122 
DISL,ioos:station:DISL:CATA:1,2017-05-03T01:30:00Z,30.3085,-88.1395,54.49,1111122 
DISL,ioos:station:DISL:CATA:1,2017-05-03T02:00:00Z,30.3085,-88.1395,51.71,1111122 
DISL,ioos:station:DISL:CATA:1,2017-05-03T02:30:00Z,30.3085,-88.1395,53.08,1111122 
DISL,ioos:station:DISL:CATA:1,2017-05-03T03:00:00Z,30.3085,-88.1395,55.45,1111122 
DISL,ioos:station:DISL:CATA:1,2017-05-03T03:30:00Z,30.3085,-88.1395,56.2,1111122 
DISL,ioos:station:DISL:CATA:1,2017-05-03T04:00:00Z,30.3085,-88.1395,58.02,1111122 
DISL,ioos:station:DISL:CATA:1,2017-05-03T04:30:00Z,30.3085,-88.1395,55.96,1111122 
DISL,ioos:station:DISL:CATA:1,2017-05-03T05:00:00Z,30.3085,-88.1395,57.71,1111122 
DISL,ioos:station:DISL:CATA:1,2017-05-03T05:30:00Z,30.3085,-88.1395,61.93,1111122 
DISL,ioos:station:DISL:CATA:1,2017-05-03T06:30:00Z,30.3085,-88.1395,60.38,1111122 
DISL,ioos:station:DISL:CATA:1,2017-05-03T07:00:00Z,30.3085,-88.1395,63.67,1111122 
DISL,ioos:station:DISL:CATA:1,2017-05-03T07:30:00Z,30.3085,-88.1395,65.28,1111122 
DISL,ioos:station:DISL:CATA:1,2017-05-03T08:00:00Z,30.3085,-88.1395,77.0,1111122 
DISL,ioos:station:DISL:CATA:1,2017-05-03T08:30:00Z,30.3085,-88.1395,69.5,1111122 
DISL,ioos:station:DISL:CATA:1,2017-05-03T09:00:00Z,30.3085,-88.1395,68.81,1111122 
DISL,ioos:station:DISL:CATA:1,2017-05-03T09:30:00Z,30.3085,-88.1395,73.27,1111122 
DISL,ioos:station:DISL:CATA:1,2017-05-03T10:00:00Z,30.3085,-88.1395,72.48,1111122 
DISL,ioos:station:DISL:CATA:1,2017-05-03T10:30:00Z,30.3085,-88.1395,69.16,1111122 
DISL,ioos:station:DISL:CATA:1,2017-05-03T11:00:00Z,30.3085,-88.1395,79.47,1111122 
DISL,ioos:station:DISL:CATA:1,2017-05-03T11:30:00Z,30.3085,-88.1395,76.56,1111122 
DISL,ioos:station:DISL:CATA:1,2017-05-03T12:00:00Z,30.3085,-88.1395,72.04,1111122 
DISL,ioos:station:DISL:CATA:1,2017-05-03T12:30:00Z,30.3085,-88.1395,68.95,1111122 
DISL,ioos:station:DISL:CATA:1,2017-05-03T13:00:00Z,30.3085,-88.1395,62.68,1111122 
DISL,ioos:station:DISL:CATA:1,2017-05-03T13:30:00Z,30.3085,-88.1395,64.62,1111122 
DISL,ioos:station:DISL:CATA:1,2017-05-03T14:00:00Z,30.3085,-88.1395,69.56,1111122 
DISL,ioos:station:DISL:CATA:1,2017-05-03T14:30:00Z,30.3085,-88.1395,75.31,1111122 
DISL,ioos:station:DISL:CATA:1,2017-05-03T15:00:00Z,30.3085,-88.1395,73.11,1111122 
DISL,ioos:station:DISL:CATA:1,2017-05-03T15:30:00Z,30.3085,-88.1395,70.37,1111122 
DISL,ioos:station:DISL:CATA:1,2017-05-03T16:00:00Z,30.3085,-88.1395,70.88,1111122 
DISL,ioos:station:DISL:CATA:1,2017-05-03T16:30:00Z,30.3085,-88.1395,69.07,1111122 
DISL,ioos:station:DISL:CATA:1,2017-05-03T17:00:00Z,30.3085,-88.1395,69.96,1111122 
DISL,ioos:station:DISL:CATA:1,2017-05-03T17:30:00Z,30.3085,-88.1395,73.39,1111122 
DISL,ioos:station:DISL:CATA:1,2017-05-03T18:00:00Z,30.3085,-88.1395,69.76,1111122 
DISL,ioos:station:DISL:CATA:1,2017-05-03T18:30:00Z,30.3085,-88.1395,68.12,1111122 
DISL,ioos:station:DISL:CATA:1,2017-05-03T19:00:00Z,30.3085,-88.1395,71.75,1111122 
DISL,ioos:station:DISL:CATA:1,2017-05-03T19:30:00Z,30.3085,-88.1395,73.53,1111122 
DISL,ioos:station:DISL:CATA:1,2017-05-03T20:00:00Z,30.3085,-88.1395,74.64,1111122 
DISL,ioos:station:DISL:CATA:1,2017-05-03T20:30:00Z,30.3085,-88.1395,75.08,1111122 
DISL,ioos:station:DISL:CATA:1,2017-05-03T21:00:00Z,30.3085,-88.1395,72.58,1111122 
DISL,ioos:station:DISL:CATA:1,2017-05-03T21:30:00Z,30.3085,-88.1395,77.9,1111122 
DISL,ioos:station:DISL:CATA:1,2017-05-03T22:00:00Z,30.3085,-88.1395,86.1,1111122 
DISL,ioos:station:DISL:CATA:1,2017-05-03T22:30:00Z,30.3085,-88.1395,88.6,1111122 
DISL,ioos:station:DISL:CATA:1,2017-05-03T23:00:00Z,30.3085,-88.1395,75.29,1111122 
DISL,ioos:station:DISL:CATA:1,2017-05-03T23:30:00Z,30.3085,-88.1395,84.5,1111122 
DISL,ioos:station:DISL:CATA:1,2017-05-04T00:00:00Z,30.3085,-88.1395,84.3,1111122 
DISL,ioos:station:DISL:CATA:1,2017-05-04T00:30:00Z,30.3085,-88.1395,62.01,1111122 
DISL,ioos:station:DISL:CATA:1,2017-05-04T01:00:00Z,30.3085,-88.1395,67.75,1111122 
DISL,ioos:station:DISL:CATA:1,2017-05-04T01:30:00Z,30.3085,-88.1395,73.34,1111122 
DISL,ioos:station:DISL:CATA:1,2017-05-04T02:00:00Z,30.3085,-88.1395,69.81,1111122 
DISL,ioos:station:DISL:CATA:1,2017-05-04T02:30:00Z,30.3085,-88.1395,69.95,1111122 
DISL,ioos:station:DISL:CATA:1,2017-05-04T03:00:00Z,30.3085,-88.1395,66.21,1111122 
DISL,ioos:station:DISL:CATA:1,2017-05-04T03:30:00Z,30.3085,-88.1395,77.14,1111122 
DISL,ioos:station:DISL:CATA:1,2017-05-04T04:00:00Z,30.3085,-88.1395,77.42,1111122 
DISL,ioos:station:DISL:CATA:1,2017-05-04T04:30:00Z,30.3085,-88.1395,84.9,1111122 
DISL,ioos:station:DISL:CATA:1,2017-05-04T05:00:00Z,30.3085,-88.1395,78.5,1111122 
DISL,ioos:station:DISL:CATA:1,2017-05-04T05:30:00Z,30.3085,-88.1395,81.5,1111122 
DISL,ioos:station:DISL:CATA:1,2017-05-04T06:30:00Z,30.3085,-88.1395,91.6,1111122 
DISL,ioos:station:DISL:CATA:1,2017-05-04T07:00:00Z,30.3085,-88.1395,90.3,1111122 
DISL,ioos:station:DISL:CATA:1,2017-05-04T07:30:00Z,30.3085,-88.1395,91.3,1111122 
DISL,ioos:station:DISL:CATA:1,2017-05-04T08:00:00Z,30.3085,-88.1395,90.9,1111122 
DISL,ioos:station:DISL:CATA:1,2017-05-04T08:30:00Z,30.3085,-88.1395,91.2,1111122 
DISL,ioos:station:DISL:CATA:1,2017-05-04T09:00:00Z,30.3085,-88.1395,91.2,1111122 
DISL,ioos:station:DISL:CATA:1,2017-05-04T09:30:00Z,30.3085,-88.1395,89.4,1111122 
DISL,ioos:station:DISL:CATA:1,2017-05-04T10:00:00Z,30.3085,-88.1395,87.9,1111122 
DISL,ioos:station:DISL:CATA:1,2017-05-04T10:30:00Z,30.3085,-88.1395,88.8,1111122 
DISL,ioos:station:DISL:CATA:1,2017-05-04T11:00:00Z,30.3085,-88.1395,88.9,1111122 
DISL,ioos:station:DISL:CATA:1,2017-05-04T11:30:00Z,30.3085,-88.1395,89.2,1111122 
DISL,ioos:station:DISL:CATA:1,2017-05-04T12:00:00Z,30.3085,-88.1395,83.2,1111122 
DISL,ioos:station:DISL:CATA:1,2017-05-04T12:30:00Z,30.3085,-88.1395,77.61,1111122 
DISL,ioos:station:DISL:CATA:1,2017-05-04T13:00:00Z,30.3085,-88.1395,72.45,1111122 
DISL,ioos:station:DISL:CATA:1,2017-05-04T13:30:00Z,30.3085,-88.1395,71.56,1111122 
DISL,ioos:station:DISL:CATA:1,2017-05-04T14:00:00Z,30.3085,-88.1395,68.95,1111122 
DISL,ioos:station:DISL:CATA:1,2017-05-04T14:30:00Z,30.3085,-88.1395,71.69,1111122 
DISL,ioos:station:DISL:CATA:1,2017-05-04T15:00:00Z,30.3085,-88.1395,70.6,1111122 
DISL,ioos:station:DISL:CATA:1,2017-05-04T15:30:00Z,30.3085,-88.1395,67.85,1111122 
DISL,ioos:station:DISL:CATA:1,2017-05-04T16:00:00Z,30.3085,-88.1395,78.14,1111122 
DISL,ioos:station:DISL:CATA:1,2017-05-04T16:30:00Z,30.3085,-88.1395,81.1,1111122 
DISL,ioos:station:DISL:CATA:1,2017-05-04T17:00:00Z,30.3085,-88.1395,81.2,1111122 
DISL,ioos:station:DISL:CATA:1,2017-05-04T17:30:00Z,30.3085,-88.1395,81.1,1111122 
DISL,ioos:station:DISL:CATA:1,2017-05-04T18:00:00Z,30.3085,-88.1395,81.5,1111122 
DISL,ioos:station:DISL:CATA:1,2017-05-04T18:30:00Z,30.3085,-88.1395,77.18,1111122 
DISL,ioos:station:DISL:CATA:1,2017-05-04T19:00:00Z,30.3085,-88.1395,76.56,1111122 
DISL,ioos:station:DISL:CATA:1,2017-05-04T19:30:00Z,30.3085,-88.1395,80.8,1111122 
DISL,ioos:station:DISL:CATA:1,2017-05-04T20:00:00Z,30.3085,-88.1395,80.7,1111122 
DISL,ioos:station:DISL:CATA:1,2017-05-04T20:30:00Z,30.3085,-88.1395,82.1,1111122 
DISL,ioos:station:DISL:CATA:1,2017-05-04T21:00:00Z,30.3085,-88.1395,82.5,1111122 
DISL,ioos:station:DISL:CATA:1,2017-05-04T21:30:00Z,30.3085,-88.1395,78.68,1111122 
DISL,ioos:station:DISL:CATA:1,2017-05-04T22:00:00Z,30.3085,-88.1395,64.77,1111122 
DISL,ioos:station:DISL:CATA:1,2017-05-04T22:30:00Z,30.3085,-88.1395,64.91,1111122 
DISL,ioos:station:DISL:CATA:1,2017-05-04T23:00:00Z,30.3085,-88.1395,58.23,1111122 
DISL,ioos:station:DISL:CATA:1,2017-05-04T23:30:00Z,30.3085,-88.1395,63.45,1111122 
DISL,ioos:station:DISL:CATA:1,2017-05-05T00:00:00Z,30.3085,-88.1395,64.0,1111122 
DISL,ioos:station:DISL:CATA:1,2017-05-05T00:30:00Z,30.3085,-88.1395,67.98,1111122 
DISL,ioos:station:DISL:CATA:1,2017-05-05T01:00:00Z,30.3085,-88.1395,65.79,1111122 
DISL,ioos:station:DISL:CATA:1,2017-05-05T01:30:00Z,30.3085,-88.1395,63.66,1111122 
DISL,ioos:station:DISL:CATA:1,2017-05-05T02:00:00Z,30.3085,-88.1395,70.17,1111122 
DISL,ioos:station:DISL:CATA:1,2017-05-05T02:30:00Z,30.3085,-88.1395,68.91,1111122 
DISL,ioos:station:DISL:CATA:1,2017-05-05T03:00:00Z,30.3085,-88.1395,67.92,1111122 
DISL,ioos:station:DISL:CATA:1,2017-05-05T03:30:00Z,30.3085,-88.1395,73.41,1111122 
DISL,ioos:station:DISL:CATA:1,2017-05-05T04:00:00Z,30.3085,-88.1395,72.84,1111122 
DISL,ioos:station:DISL:CATA:1,2017-05-05T04:30:00Z,30.3085,-88.1395,67.32,1111122 
DISL,ioos:station:DISL:CATA:1,2017-05-05T05:00:00Z,30.3085,-88.1395,72.94,1111122 
DISL,ioos:station:DISL:CATA:1,2017-05-05T05:30:00Z,30.3085,-88.1395,66.29,1111122 
DISL,ioos:station:DISL:CATA:1,2017-05-05T06:30:00Z,30.3085,-88.1395,70.88,1111122 
DISL,ioos:station:DISL:CATA:1,2017-05-05T07:00:00Z,30.3085,-88.1395,69.17,1111122 
DISL,ioos:station:DISL:CATA:1,2017-05-05T07:30:00Z,30.3085,-88.1395,71.23,1111122 
DISL,ioos:station:DISL:CATA:1,2017-05-05T08:00:00Z,30.3085,-88.1395,73.63,1111122 
DISL,ioos:station:DISL:CATA:1,2017-05-05T08:30:00Z,30.3085,-88.1395,74.9,1111122 
DISL,ioos:station:DISL:CATA:1,2017-05-05T09:00:00Z,30.3085,-88.1395,78.09,1111122 
DISL,ioos:station:DISL:CATA:1,2017-05-05T09:30:00Z,30.3085,-88.1395,73.01,1111122 
DISL,ioos:station:DISL:CATA:1,2017-05-05T10:00:00Z,30.3085,-88.1395,69.38,1111122 
DISL,ioos:station:DISL:CATA:1,2017-05-05T10:30:00Z,30.3085,-88.1395,69.27,1111122 
DISL,ioos:station:DISL:CATA:1,2017-05-05T11:00:00Z,30.3085,-88.1395,71.23,1111122 
DISL,ioos:station:DISL:CATA:1,2017-05-05T11:30:00Z,30.3085,-88.1395,71.5,1111122 
DISL,ioos:station:DISL:CATA:1,2017-05-05T12:00:00Z,30.3085,-88.1395,66.84,1111122 
DISL,ioos:station:DISL:CATA:1,2017-05-05T12:30:00Z,30.3085,-88.1395,68.0,1111122 
DISL,ioos:station:DISL:CATA:1,2017-05-05T13:00:00Z,30.3085,-88.1395,61.31,1111122 
DISL,ioos:station:DISL:CATA:1,2017-05-05T13:30:00Z,30.3085,-88.1395,62.19,1111122 
DISL,ioos:station:DISL:CATA:1,2017-05-05T14:00:00Z,30.3085,-88.1395,65.79,1111122 
DISL,ioos:station:DISL:CATA:1,2017-05-05T14:30:00Z,30.3085,-88.1395,62.8,1111122 
DISL,ioos:station:DISL:CATA:1,2017-05-05T15:00:00Z,30.3085,-88.1395,51.94,1111122 
DISL,ioos:station:DISL:CATA:1,2017-05-05T15:30:00Z,30.3085,-88.1395,45.59,1111122 
DISL,ioos:station:DISL:CATA:1,2017-05-05T16:00:00Z,30.3085,-88.1395,47.03,1111122 
DISL,ioos:station:DISL:CATA:1,2017-05-05T16:30:00Z,30.3085,-88.1395,45.04,1111122 
DISL,ioos:station:DISL:CATA:1,2017-05-05T17:00:00Z,30.3085,-88.1395,46.24,1111122 
DISL,ioos:station:DISL:CATA:1,2017-05-05T17:30:00Z,30.3085,-88.1395,46.21,1111122 
DISL,ioos:station:DISL:CATA:1,2017-05-05T18:00:00Z,30.3085,-88.1395,52.03,1111122 
DISL,ioos:station:DISL:CATA:1,2017-05-05T18:30:00Z,30.3085,-88.1395,49.97,1111122 
DISL,ioos:station:DISL:CATA:1,2017-05-05T19:00:00Z,30.3085,-88.1395,50.86,1111122 
DISL,ioos:station:DISL:CATA:1,2017-05-05T19:30:00Z,30.3085,-88.1395,47.5,1111122 
DISL,ioos:station:DISL:CATA:1,2017-05-05T20:00:00Z,30.3085,-88.1395,50.79,1111122 
DISL,ioos:station:DISL:CATA:1,2017-05-05T20:30:00Z,30.3085,-88.1395,43.69,1111122 
DISL,ioos:station:DISL:CATA:1,2017-05-05T21:00:00Z,30.3085,-88.1395,38.79,1111122 
DISL,ioos:station:DISL:CATA:1,2017-05-05T21:30:00Z,30.3085,-88.1395,46.06,1111122 
DISL,ioos:station:DISL:CATA:1,2017-05-05T22:00:00Z,30.3085,-88.1395,38.97,1111122 
DISL,ioos:station:DISL:CATA:1,2017-05-05T22:30:00Z,30.3085,-88.1395,36.74,1111122 
DISL,ioos:station:DISL:CATA:1,2017-05-05T23:00:00Z,30.3085,-88.1395,36.39,1111122 
DISL,ioos:station:DISL:CATA:1,2017-05-05T23:30:00Z,30.3085,-88.1395,37.08,1111122 
DISL,ioos:station:DISL:CATA:1,2017-05-06T00:00:00Z,30.3085,-88.1395,36.74,1111122 
DISL,ioos:station:DISL:CATA:1,2017-05-06T00:30:00Z,30.3085,-88.1395,39.24,1111122 
DISL,ioos:station:DISL:CATA:1,2017-05-06T01:00:00Z,30.3085,-88.1395,40.51,1111122 
DISL,ioos:station:DISL:CATA:1,2017-05-06T01:30:00Z,30.3085,-88.1395,41.85,1111122 
DISL,ioos:station:DISL:CATA:1,2017-05-06T02:00:00Z,30.3085,-88.1395,46.66,1111122 
DISL,ioos:station:DISL:CATA:1,2017-05-06T02:30:00Z,30.3085,-88.1395,46.07,1111122 
DISL,ioos:station:DISL:CATA:1,2017-05-06T03:00:00Z,30.3085,-88.1395,48.61,1111122 
DISL,ioos:station:DISL:CATA:1,2017-05-06T03:30:00Z,30.3085,-88.1395,48.75,1111122 
DISL,ioos:station:DISL:CATA:1,2017-05-06T04:00:00Z,30.3085,-88.1395,55.23,1111122 
DISL,ioos:station:DISL:CATA:1,2017-05-06T04:30:00Z,30.3085,-88.1395,53.55,1111122 
DISL,ioos:station:DISL:CATA:1,2017-05-06T05:00:00Z,30.3085,-88.1395,57.83,1111122 
DISL,ioos:station:DISL:CATA:1,2017-05-06T05:30:00Z,30.3085,-88.1395,53.82,1111122 
DISL,ioos:station:DISL:CATA:1,2017-05-06T06:30:00Z,30.3085,-88.1395,57.08,1111122 
DISL,ioos:station:DISL:CATA:1,2017-05-06T07:00:00Z,30.3085,-88.1395,55.16,1111122 
DISL,ioos:station:DISL:CATA:1,2017-05-06T07:30:00Z,30.3085,-88.1395,58.48,1111122 
DISL,ioos:station:DISL:CATA:1,2017-05-06T08:00:00Z,30.3085,-88.1395,60.78,1111122 
DISL,ioos:station:DISL:CATA:1,2017-05-06T08:30:00Z,30.3085,-88.1395,65.0,1111122 
DISL,ioos:station:DISL:CATA:1,2017-05-06T09:00:00Z,30.3085,-88.1395,61.23,1111122 
DISL,ioos:station:DISL:CATA:1,2017-05-06T09:30:00Z,30.3085,-88.1395,66.85,1111122 
DISL,ioos:station:DISL:CATA:1,2017-05-06T10:00:00Z,30.3085,-88.1395,65.59,1111122 
DISL,ioos:station:DISL:CATA:1,2017-05-06T10:30:00Z,30.3085,-88.1395,67.87,1111122 
DISL,ioos:station:DISL:CATA:1,2017-05-06T11:00:00Z,30.3085,-88.1395,63.55,1111122 
DISL,ioos:station:DISL:CATA:1,2017-05-06T11:30:00Z,30.3085,-88.1395,60.87,1111122 
DISL,ioos:station:DISL:CATA:1,2017-05-06T12:00:00Z,30.3085,-88.1395,66.53,1111122 
DISL,ioos:station:DISL:CATA:1,2017-05-06T12:30:00Z,30.3085,-88.1395,66.83,1111122 
DISL,ioos:station:DISL:CATA:1,2017-05-06T13:00:00Z,30.3085,-88.1395,64.49,1111122 
DISL,ioos:station:DISL:CATA:1,2017-05-06T13:30:00Z,30.3085,-88.1395,59.92,1111122 
DISL,ioos:station:DISL:CATA:1,2017-05-06T14:00:00Z,30.3085,-88.1395,59.51,1111122 
DISL,ioos:station:DISL:CATA:1,2017-05-06T14:30:00Z,30.3085,-88.1395,55.01,1111122 
DISL,ioos:station:DISL:CATA:1,2017-05-06T15:00:00Z,30.3085,-88.1395,56.07,1111122 
DISL,ioos:station:DISL:CATA:1,2017-05-06T15:30:00Z,30.3085,-88.1395,52.02,1111122 
DISL,ioos:station:DISL:CATA:1,2017-05-06T16:00:00Z,30.3085,-88.1395,42.53,1111122 
DISL,ioos:station:DISL:CATA:1,2017-05-06T16:30:00Z,30.3085,-88.1395,40.51,1111122 
DISL,ioos:station:DISL:CATA:1,2017-05-06T17:00:00Z,30.3085,-88.1395,49.52,1111122 
DISL,ioos:station:DISL:CATA:1,2017-05-06T17:30:00Z,30.3085,-88.1395,49.07,1111122 
DISL,ioos:station:DISL:CATA:1,2017-05-06T18:00:00Z,30.3085,-88.1395,52.74,1111122 
DISL,ioos:station:DISL:CATA:1,2017-05-06T18:30:00Z,30.3085,-88.1395,45.99,1111122 
DISL,ioos:station:DISL:CATA:1,2017-05-06T19:00:00Z,30.3085,-88.1395,42.84,1111122 
DISL,ioos:station:DISL:CATA:1,2017-05-06T19:30:00Z,30.3085,-88.1395,55.93,1111122 
DISL,ioos:station:DISL:CATA:1,2017-05-06T20:00:00Z,30.3085,-88.1395,47.46,1111122 
DISL,ioos:station:DISL:CATA:1,2017-05-06T20:30:00Z,30.3085,-88.1395,55.89,1111122 
DISL,ioos:station:DISL:CATA:1,2017-05-06T21:00:00Z,30.3085,-88.1395,46.64,1111122 
DISL,ioos:station:DISL:CATA:1,2017-05-06T21:30:00Z,30.3085,-88.1395,49.31,1111122 
DISL,ioos:station:DISL:CATA:1,2017-05-06T22:00:00Z,30.3085,-88.1395,51.03,1111122 
DISL,ioos:station:DISL:CATA:1,2017-05-06T22:30:00Z,30.3085,-88.1395,53.12,1111122 
DISL,ioos:station:DISL:CATA:1,2017-05-06T23:00:00Z,30.3085,-88.1395,54.83,1111122 
DISL,ioos:station:DISL:CATA:1,2017-05-06T23:30:00Z,30.3085,-88.1395,52.98,1111122 
DISL,ioos:station:DISL:CATA:1,2017-05-07T00:00:00Z,30.3085,-88.1395,55.11,1111122 
DISL,ioos:station:DISL:CATA:1,2017-05-07T00:30:00Z,30.3085,-88.1395,60.52,1111122 
DISL,ioos:station:DISL:CATA:1,2017-05-07T01:00:00Z,30.3085,-88.1395,62.51,1111122 
DISL,ioos:station:DISL:CATA:1,2017-05-07T01:30:00Z,30.3085,-88.1395,61.96,1111122 
DISL,ioos:station:DISL:CATA:1,2017-05-07T02:00:00Z,30.3085,-88.1395,66.42,1111122 
DISL,ioos:station:DISL:CATA:1,2017-05-07T02:30:00Z,30.3085,-88.1395,68.06,1111122 
DISL,ioos:station:DISL:CATA:1,2017-05-07T03:00:00Z,30.3085,-88.1395,70.19,1111122 